Flag for U.S.A. Weather past 2 weeks in Augusta, Maine, U.S.A.

Now
76 °F

Sunny.


Feels Like: 78 °F
Forecast: 62 / 83 °F
Wind: 5 mph from West

Location: Augusta State Airport

Current Time: Jul 5, 2015 at 8:58:32 PM

Latest Report: Jul 5, 2015 at 7:53 PM


Visibility: 10 mi

Pressure: 30.04 "Hg

Humidity: 54%

Dew point: 58 °F

Location of AugustaLocation

Historic Weather in Augusta — Graph

°F

Augusta temperature yesterday

Maximum temperature yesterday: 73 °F (at 12:53 PM)
Minimum temperature yesterday: 55 °F (at 3:53 AM)
Average temperature yesterday: 64 °F

Past Weeks' High & Low Weather Summary

 TemperatureHumidityPressure
High81 °F (Jul 5, 3:53 PM)100% (Jun 21, 7:01 AM)30.19 "Hg (Jun 21, 7:01 AM)
Low50 °F (Jun 28, 10:53 PM)28% (Jun 25, 2:53 PM)29.68 "Hg (Jun 21, 4:53 PM)
Average63 °F73%29.92 "Hg
* Reported Jun 20 7:53 PM — Jul 5 7:53 PM, Augusta, Weather by CustomWeather, © 2015

Note: Actual official high and low records may vary slightly from our data, if they occured in-between our weather recording intervals... More about our weather records

Advertising

Augusta weather history for previous 24 hours

 ConditionsComfort  
Time TempWeatherWind HumidityBarometerVisibility
7:53 PM
Sun, Jul 5
76 °FSunny.5 mph54%30.04 "Hg10 mi
6:53 PM79 °FSunny.6 mph45%30.02 "Hg10 mi
5:53 PM80 °FSunny.8 mph42%30.01 "Hg10 mi
4:53 PM80 °FPassing clouds.8 mph44%30.01 "Hg10 mi
3:53 PM81 °FPartly sunny.9 mph45%30.02 "Hg10 mi
2:53 PM80 °FPartly sunny.8 mph47%30.01 "Hg10 mi
1:53 PM78 °FBroken clouds.5 mph50%30.01 "Hg10 mi
12:53 PM78 °FSunny.5 mph52%30.02 "Hg10 mi
11:53 AM76 °FPassing clouds.5 mph52%30.02 "Hg10 mi
10:53 AM76 °FSunny.12 mph52%30.01 "Hg10 mi
9:53 AM73 °FPassing clouds.8 mph59%30.02 "Hg10 mi
8:53 AM71 °FPassing clouds.8 mph68%30.03 "Hg10 mi
7:53 AM66 °FSunny.6 mph81%30.01 "Hg10 mi
6:53 AM59 °FPassing clouds.No wind93%29.98 "Hg7 mi
5:53 AM58 °FClear.No wind93%29.97 "Hg7 mi
4:53 AM56 °FClear.No wind97%29.96 "Hg7 mi
3:53 AM56 °FFog.No wind97%29.96 "Hg5 mi
2:53 AM55 °FFog.No wind100%29.96 "Hg1 mi
1:53 AM56 °FFog.3 mph97%29.95 "Hg0 mi
1:03 AM57 °FFog.No wind96%29.96 "Hg2 mi
12:53 AM57 °FFog.3 mph96%29.95 "Hg3 mi
11:53 PM
Sat, Jul 4
58 °FFog.No wind97%29.96 "Hg5 mi
10:53 PM59 °FPassing clouds.3 mph93%29.96 "Hg8 mi
9:53 PM61 °FClear.3 mph87%29.96 "Hg10 mi
8:53 PM63 °FSunny.3 mph84%29.95 "Hg10 mi
Weather by CustomWeather, © 2015

See weather overviewHow to use our weather pages